Hartford, CT

10:19 AM EDT on September 21, 2019 (GMT -0400)
Hartford-brainard

Weather History for KHFD - August, 2019

Change the Weather History Date:

Thursday, August 22, 2019

  Actual Average Record
Temperature  
Mean Temperature 80 °F -  
Max Temperature 90 °F 79 °F 91 °F (1976)
Min Temperature 70 °F 57 °F 43 °F (1982)
Cooling Degree Days 14    
Growing Degree Days 30 (Base 50)    
Moisture  
Dew Point 70 °F    
Average Humidity 86    
Maximum Humidity 97    
Minimum Humidity 46    
Precipitation  
Precipitation 0.09 in - - ()
Sea Level Pressure  
Sea Level Pressure 29.84 in    
Wind  
Wind Speed 2 mph ()    
Max Wind Speed 13 mph    
Max Gust Speed 23 mph    
Visibility 5.7 miles    
Events Fog , Rain    
Averages and records for this station are not official NWS values.
T = Trace of Precipitation, MM = Missing Value Source: Averaged Metar Reports

Daily Weather History Graph

Daily Weather History Graph

Search for Another Location

Airport or City:

Astronomy

Aug. 22, 2019 Rise Set
Actual Time 6:05 AM EDT 7:40 PM EDT
Civil Twilight 5:36 AM EDT 8:09 PM EDT
Nautical Twilight 5:01 AM EDT 8:44 PM EDT
Astronomical Twilight 4:23 AM EDT 9:22 PM EDT
Moon 11:22 PM EDT (8/22) 12:44 PM EDT (8/22)
Length of Visible Light 14h 33m
Length of Day
13h 34m
Waning Gibbous, 60% of the Moon is Illuminated
Aug 22
Waning Gibbous
Aug 23
Last Quarter
Aug 30
New
Sep 5
First Quarter
Sep 14
Full

Hourly Weather History & Observations

Time (EDT) Temp. Heat Index Dew Point Humidity Pressure Visibility Wind Dir Wind Speed Gust Speed Precip Events Conditions
12:22 AM 70.0 °F - 69.1 °F 97% 29.86 in 1.5 mi Calm Calm - N/A   Clear
12:32 AM 70.0 °F - 69.1 °F 97% 29.86 in 0.8 mi South 4.6 mph - N/A   Clear
12:37 AM 71.1 °F - 70.0 °F 96% 29.86 in 2.0 mi Calm Calm - N/A   Clear
12:44 AM 71.1 °F - 70.0 °F 96% 29.85 in 7.0 mi Calm Calm - N/A   Clear
12:53 AM 71.1 °F - 69.1 °F 93% 29.85 in 7.0 mi Calm Calm - N/A   Clear
1:08 AM 70.0 °F - 69.1 °F 97% 29.85 in 1.5 mi Calm Calm - N/A   Partly Cloudy
1:11 AM 70.0 °F - 69.1 °F 97% 29.85 in 0.8 mi South 3.5 mph - N/A   Mist
1:18 AM 71.1 °F - 70.0 °F 96% 29.85 in 1.5 mi Calm Calm - N/A   Partly Cloudy
1:20 AM 71.1 °F - 70.0 °F 96% 29.85 in 3.0 mi South 4.6 mph - N/A   Partly Cloudy
1:53 AM 71.1 °F - 69.1 °F 93% 29.84 in 7.0 mi South 3.5 mph - N/A   Partly Cloudy
2:53 AM 71.1 °F - 70.0 °F 96% 29.83 in 5.0 mi SSW 3.5 mph - N/A   Scattered Clouds
3:02 AM 71.1 °F - 70.0 °F 96% 29.82 in 5.0 mi South 3.5 mph - N/A   Mostly Cloudy
3:46 AM 71.1 °F - 70.0 °F 96% 29.81 in 2.0 mi South 3.5 mph - N/A   Overcast
3:53 AM 71.1 °F - 70.0 °F 96% 29.81 in 2.5 mi Calm Calm - N/A   Overcast
4:00 AM 71.1 °F - 70.0 °F 96% 29.81 in 4.0 mi Calm Calm - N/A   Mostly Cloudy
4:11 AM 71.1 °F - 70.0 °F 96% 29.80 in 6.0 mi Calm Calm - N/A   Scattered Clouds
4:31 AM 71.1 °F - 70.0 °F 96% 29.81 in 4.0 mi Calm Calm - N/A   Mostly Cloudy
4:35 AM 71.1 °F - 69.1 °F 93% 29.81 in 1.8 mi Calm Calm - N/A   Mostly Cloudy
4:49 AM 71.6 °F - 69.8 °F 94% 29.81 in 0.5 mi Calm Calm - N/A Fog Fog
4:53 AM 71.1 °F - 69.1 °F 93% 29.81 in 0.8 mi Calm Calm - N/A   Overcast
5:05 AM 71.1 °F - 69.1 °F 93% 29.81 in 1.0 mi Calm Calm - N/A   Overcast
5:14 AM 71.1 °F - 70.0 °F 96% 29.81 in 3.0 mi Calm Calm - N/A   Overcast
5:27 AM 72.0 °F - 71.1 °F 97% 29.81 in 5.0 mi Calm Calm - N/A   Overcast
5:53 AM 73.0 °F - 71.1 °F 93% 29.82 in 5.0 mi NW 3.5 mph - N/A   Overcast
6:24 AM 73.0 °F - 72.0 °F 96% 29.82 in 2.5 mi Calm Calm - N/A   Overcast
6:53 AM 73.9 °F - 72.0 °F 93% 29.83 in 2.5 mi SSW 3.5 mph - N/A   Overcast
7:53 AM 75.0 °F - 73.0 °F 94% 29.85 in 5.0 mi South 3.5 mph - N/A   Overcast
8:53 AM 77.0 °F - 73.0 °F 88% 29.84 in 8.0 mi South 3.5 mph - N/A   Mostly Cloudy
9:53 AM 79.0 °F - 72.0 °F 79% 29.86 in 10.0 mi Variable 3.5 mph - N/A   Mostly Cloudy
10:30 AM 81.0 °F 85.2 °F 72.0 °F 74% 29.86 in 10.0 mi Calm Calm - N/A   Mostly Cloudy
10:46 AM 81.0 °F 85.2 °F 72.0 °F 74% 29.86 in 10.0 mi South 3.5 mph - N/A   Scattered Clouds
10:53 AM 80.1 °F 83.6 °F 71.1 °F 74% 29.86 in 10.0 mi SSE 4.6 mph - N/A   Scattered Clouds
10:55 AM 80.1 °F 83.6 °F 71.1 °F 74% 29.86 in 10.0 mi South 3.5 mph - N/A   Mostly Cloudy
11:53 AM 84.0 °F 90.2 °F 73.0 °F 69% 29.85 in 10.0 mi Calm Calm - N/A   Partly Cloudy
12:53 PM 86.0 °F 90.7 °F 70.0 °F 59% 29.84 in 10.0 mi West 4.6 mph - N/A   Scattered Clouds
1:53 PM 88.0 °F 90.3 °F 66.0 °F 48% 29.84 in 10.0 mi Variable 6.9 mph - N/A   Mostly Cloudy
2:53 PM 88.0 °F 90.3 °F 66.0 °F 48% 29.83 in 10.0 mi NW 8.1 mph - N/A   Scattered Clouds
3:53 PM 89.1 °F 91.3 °F 66.0 °F 46% 29.82 in 10.0 mi WNW 4.6 mph - N/A   Partly Cloudy
4:53 PM 87.1 °F 88.9 °F 64.9 °F 48% 29.82 in 10.0 mi West 3.5 mph - N/A   Mostly Cloudy
5:38 PM 75.0 °F - 71.1 °F 87% 29.87 in 1.8 mi WNW 12.7 mph 23.0 mph 0.06 in Rain Heavy Rain
5:49 PM 73.4 °F - 69.8 °F 88% 29.86 in 3.0 mi NW 9.2 mph 18.4 mph 0.08 in Rain Light Rain
5:53 PM 73.9 °F - 70.0 °F 87% 29.86 in 5.0 mi Variable 5.8 mph - 0.08 in Rain Light Rain
6:53 PM 77.0 °F - 71.1 °F 82% 29.85 in 10.0 mi ESE 3.5 mph - 0.00 in   Mostly Cloudy
7:53 PM 75.0 °F - 72.0 °F 90% 29.86 in 10.0 mi Calm Calm - N/A   Mostly Cloudy
8:53 PM 73.9 °F - 72.0 °F 93% 29.86 in 9.0 mi ESE 3.5 mph - N/A   Overcast
9:53 PM 75.0 °F - 72.0 °F 90% 29.88 in 10.0 mi SSW 4.6 mph - N/A   Overcast
10:53 PM 75.0 °F - 73.0 °F 94% 29.88 in 8.0 mi Calm Calm - 0.00 in Rain Light Rain
11:53 PM 75.9 °F - 69.1 °F 79% 29.91 in 10.0 mi Calm Calm - 0.01 in   Overcast